Location: Quedlinburg
(51.7921°N, 11.1414°E)
Time: 09:44:20
(UTC+02:00)

RS-44 - Pass Details

Date: 17 March 2026
Orbit: 1175 x 1510 km, 82.5° (Epoch: 17 April)

Event Time Altitude Azimuth Distance (km) Brightness Sun altitude
Rises 01:08:37 0° 349° (N) 4,372 ? -38.8°
Reaches altitude 10° 01:11:39 10° 358° (N) 3,444 ? -38.6°
Maximum altitude 01:19:14 38° 64° (ENE) 2,070 ? -38.3°
Enters shadow 01:22:27 29° 104° (ESE) 2,413 ? -38.2°
